This demonstration page uses our WeatherBlox Daily Observations layout. Learn more.

Left ArrowRight Arrow

34.02893, -84.19858

Hourly Observations for April 6, 2019

Temp ( °F °C ) Dew Point ( °F °C ) Humidity (%) Winds ( mph kmh ) Pressure ( in mb ) Visibility ( mi km ) Precip ( " mm )
12:53 am 00:53 Mostly Cloudy 60 15.6 58 14.4 93 93 VRB 3 6 30.10 1019 8 13 0.00 0.00
1:53 am 01:53 Mostly Cloudy 59 15 56 13.3 90 90 VRB 3 6 30.10 1019 9 14 0.00 0.00
2:53 am 02:53 Mostly Cloudy 58 14.4 56 13.3 93 93 E 3 6 30.10 1019 8 13 0.00 0.00
3:06 am 03:06 Mostly Cloudy 58 14.4 57 13.9 97 97 ENE 5 7 30.11 1020 8 13 0.00 0.00
3:53 am 03:53 Cloudy 58 14.4 56 13.3 93 93 E 6 9 30.10 1019 7 11 0.00 0.00
4:53 am 04:53 Cloudy 57 13.9 55 12.8 93 93 VRB 3 6 30.10 1019 9 14 0.00 0.00
5:36 am 05:36 Cloudy 57 13.9 54 12.2 90 90 VRB 6 9 30.12 1020 9 14 0.00 0.00
5:50 am 05:50 Cloudy 57 14 54 12 88 88 VRB 6 9 30.13 1020 9 14 0.00 0.00
5:53 am 05:53 Cloudy 57 13.9 54 12.2 90 90 VRB 7 11 30.10 1019 9 14 0.00 0.00
6:43 am 06:43 Cloudy 57 13.9 54 12.2 90 90 VRB 3 6 30.13 1020 10 16 0.00 0.00
6:53 am 06:53 Cloudy 57 13.9 54 12.2 90 90 VRB 3 6 30.11 1020 10 16 0.00 0.00
7:53 am 07:53 Cloudy 57 13.9 54 12.2 90 90 VRB 5 7 30.13 1020 8 13 0.00 0.00
7:57 am 07:57 Mostly Cloudy 57 13.9 54 12.2 90 90 VRB 5 7 30.15 1021 8 13 0.00 0.00
8:04 am 08:04 Mostly Cloudy 57 13.9 54 12.2 90 90 Calm 30.15 1021 8 13 0.00 0.00
8:53 am 08:53 Mostly Cloudy 57 13.9 54 12.2 90 90 E 6 9 30.15 1021 10 16 0.00 0.00
9:53 am 09:53 Cloudy 59 15 54 12.2 83 83 NE 5 7 30.17 1022 10 16 0.00 0.00
10:53 am 10:53 Cloudy 61 16.1 54 12.2 78 78 VRB 5 7 30.18 1022 10 16 0.00 0.00
11:03 am 11:03 Cloudy 61 16.1 54 12.2 78 78 Calm 30.18 1022 10 16 0.00 0.00
11:53 am 11:53 Cloudy 64 17.8 56 13.3 75 75 VRB 5 7 30.18 1022 10 16 0.00 0.00
12:53 pm 12:53 Cloudy 66 18.9 56 13.3 70 70 VRB 3 6 30.18 1022 10 16 0.00 0.00
1:53 pm 13:53 Cloudy 69 20.6 58 14.4 68 68 SSE 8 13 30.15 1021 10 16 0.00 0.00
2:46 pm 14:46 Partly Cloudy 71 21.7 59 15 66 66 Calm 30.13 1020 10 16 0.00 0.00
2:53 pm 14:53 Mostly Cloudy 70 21.1 59 15 68 68 VRB 3 6 30.13 1020 10 16 0.00 0.00
3:48 pm 15:48 Cloudy 72 22 59 15 65 65 Calm 30.11 1020 10 16 0.00 0.00
3:53 pm 15:53 Cloudy 71 21.7 59 15 66 66 Calm 30.11 1020 10 16 0.00 0.00
4:53 pm 16:53 Cloudy 72 22.2 59 15 64 64 Calm 30.09 1019 10 16 0.00 0.00
5:53 pm 17:53 Partly Cloudy 72 22.2 60 15.6 66 66 VRB 5 7 30.08 1019 10 16 0.00 0.00
6:53 pm 18:53 Mostly Cloudy 71 21.7 60 15.6 68 68 SSE 7 11 30.10 1019 10 16 0.00 0.00
7:53 pm 19:53 Mostly Cloudy 69 20.6 60 15.6 73 73 SE 8 13 30.11 1020 10 16 0.00 0.00
8:53 pm 20:53 Mostly Clear 66 18.9 60 15.6 81 81 S 6 9 30.13 1020 10 16 0.00 0.00
9:53 pm 21:53 Mostly Clear 64 17.8 60 15.6 87 87 Calm 30.15 1021 10 16 0.00 0.00
10:53 pm 22:53 Clear 64 17.8 60 15.6 87 87 Calm 30.13 1020 10 16 0.00 0.00
11:53 pm 23:53 Clear 62 16.7 60 15.6 93 93 Calm 30.15 1021 10 16 0.00 0.00

Powered by AerisWeather